Regional Weather Roundup
Issued by NWS

Home | Current Version | Previous Version | Graphics & Text | Print | Product List | Glossary On
Versions: 1 2 3 4 5 6 7 8 9 10 11 12 13 14 15 16 17 18 19 20 21 22 23 24 25 26 27 28 29 30 31 32 33 34 35 36 37 38 39 40 41 42 43 44 45 46 47 48 49 50
000
ASUS43 KLOT 310306
RWRIL

ILLINOIS REGIONAL WEATHER ROUNDUP
NATIONAL WEATHER SERVICE CHICAGO/ROMEOVILLE IL
1000 PM CDT WED JUL 30 2014

NOTE: "FAIR" INDICATES FEW OR NO CLOUDS BELOW 12,000 FEET WITH NO
SIGNIFICANT WEATHER AND/OR OBSTRUCTIONS TO VISIBILITY.

* THESE STATIONS ARE NOT UNDER NWS QUALITY CONTROL. THEY ALSO MAY NOT
  REPORT WEATHER SUCH AS PRECIPITATION OR FOG.

ILZ001-002-007-009-015-016-024-310400-
NORTHWEST ILLINOIS

CITY           SKY/WX    TMP DP  RH WIND       PRES   REMARKS
MOLINE         CLEAR     65  59  81 SW5       30.05R
STERLING*      CLEAR     66  55  68 NW5       30.05S
SAVANNA*       CLEAR     64  59  82 CALM      30.04S
$$

ILZ003-004-008-010-011-017-018-310400-
NORTH CENTRAL ILLINOIS

CITY           SKY/WX    TMP DP  RH WIND       PRES   REMARKS
ROCKFORD       CLEAR     67  53  61 NW6       30.07R
FREEPORT*      CLEAR     63  57  82 CALM      30.07S
ROCHELLE*      CLEAR     61  57  86 CALM      30.05R
DE KALB*       CLEAR     62  56  81 NW3       30.05R
PERU*          CLEAR     65  60  83 W6        30.05S
$$

ILZ005-006-012>014-019>023-310400-
NORTHEAST ILLINOIS

CITY           SKY/WX    TMP DP  RH WIND       PRES   REMARKS
CHICAGO-OHARE  PTCLDY    66  55  67 E5        30.03R
CHICAGO-MIDWAY PTCLDY    67  59  75 E5        30.04R
AURORA         CLEAR     62  58  86 W6        30.04R
LANSING*       CLEAR     63  57  80 CALM      30.04S
JOLIET*        CLEAR     65  58  77 CALM      30.04R
WAUKEGAN       CLEAR     57  54  89 CALM      30.03R
DUPAGE AIRPORT CLEAR     65  58  78 E3        30.03R
KANKAKEE*      CLEAR     66  61  85 CALM      30.05R
WHEELING       CLEAR     64  56  75 SE5       30.05R
MORRIS*        CLEAR     66  62  85 W3        30.03S
ROMEOVILLE*    CLEAR     63  58  81 CALM      30.04S
NORTHERLY ISL    N/A     64  60  87 E3          N/A
$$

LMZ740>746-310400-
SOUTHERN LAKE MICHIGAN

STATION/POSITION SKY/WX   TEMP    WIND        PRES    VSBY  WAVE
                          AIR SEA DIR/SP/G                  HT/PER
                          (F)     (DEG/KT/KT) (MB)    (MI)  (FT/S)
SOUTHERN BUOY              61 61  200/  4/  6 1016.9R         0
WAUKEGAN HARBOR            63     170/  5/  6   N/A
HARRISON CRIB              64     110/  4/  5   N/A
BURNHAM HARBOR             64     100/  2/  4   N/A
CALUMET HARBOR             65      70/  4/  5 1016.0S
MICHIGAN CITY              63      90/  3/  4   N/A
MICHIGAN CITY 6N           65 69   90/  6/  8   N/A           1/ 3
ST. JOSEPH                 65 68   60/  4/  6   N/A           1/ 3
$$

ILZ025>027-034>036-040-047-049-050-058-095>099-310400-
WEST-CENTRAL ILLINOIS

CITY           SKY/WX    TMP DP  RH WIND       PRES   REMARKS
QUINCY         CLEAR     69  60  73 CALM      30.07R
GALESBURG*     CLEAR     64  60  87 CALM      30.07R
MACOMB*        CLEAR     64  60  88 W3        30.08S
JACKSONVILLE*  PTCLDY    66  62  87 CALM      30.08S
PITTSFIELD*    PTCLDY    65  62  88 CALM      30.08S
$$

ILZ028>032-037-038-041>044-048-051>054-059>061-310400-
CENTRAL ILLINOIS

CITY           SKY/WX    TMP DP  RH WIND       PRES   REMARKS
PONTIAC        CLEAR     64  63  94 CALM      30.05R
DECATUR        CLEAR     71  59  65 W5        30.07R
PEORIA         CLEAR     70  59  68 CALM      30.06R
LACON*         CLEAR     64  60  86 CALM      30.05R
LINCOLN*       CLEAR     66  60  79 CALM      30.04R
SPRINGFIELD    CLEAR     65  61  87 CALM      30.06R
TAYLORVILLE    PTCLDY    64  61  88 CALM      30.06S
$$

ILZ033-039-045-046-055>057-062-063-310400-
EAST-CENTRAL ILLINOIS

CITY           SKY/WX    TMP DP  RH WIND       PRES   REMARKS
CHAMPAIGN      CLEAR     65  61  87 SW6       30.06R
DANVILLE*      CLEAR     62  59  91 CALM      30.03S
RANTOUL*       CLEAR     68  61  77 W3        30.06S
MATTOON        CLEAR     66  60  81 CALM      30.06R
PARIS*         CLEAR     61  60  96 CALM      30.07R
$$

ILZ079-100>102-310400-
SOUTHWEST ILLINOIS

CITY           SKY/WX    TMP DP  RH WIND       PRES   REMARKS
ALTON          CLEAR     64  63  94 SE6       30.06
BELLEVILLE     MOCLDY    68  64  85 CALM      30.06R
CAHOKIA*       MOCLDY    69  62  78 SE5       30.06R
SPARTA*        CLOUDY    70  61  73 S3        30.08R
$$

ILZ064>066-069>071-074>076-080>082-084>086-088>090-092>094-310400-
SOUTH-CENTRAL ILLINOIS

CITY           SKY/WX    TMP DP  RH WIND       PRES   REMARKS
CARBONDALE     CLOUDY    65  62  90 CALM      30.07R
CAIRO*         MOCLDY    67  61  81 CALM      30.07R
EFFINGHAM*     MOCLDY    65  58  79 CALM      30.07R
MARION         CLOUDY    68  63  83 CALM      30.08R
MT. VERNON     MOCLDY    64  57  77 CALM      30.08S
CENTRALIA*     MOCLDY    63  59  86 SW3       30.07S
SALEM*         PTCLDY   N/A N/A N/A SW3       30.08R
METROPOLIS*    CLOUDY    64  61  88 CALM      30.07R
$$

ILZ067-068-072-073-078-083-087-091-310400-
SOUTHEAST ILLINOIS

CITY           SKY/WX    TMP DP  RH WIND       PRES   REMARKS
LAWRENCEVILLE  PTCLDY    67  62  84 SW3       30.06R
FLORA*         PTCLDY    67  61  81 SW6       30.07S
FAIRFIELD*     PTCLDY    64  63  94 CALM      30.07R
HARRISBURG*    MOCLDY    65  63  93 CALM      30.08S
ROBINSON*      PTCLDY    64  62  90 CALM      30.07R
CARMI*         MOCLDY    64  63  94 CALM      30.07R
$$

ABBREVIATIONS USED IN REMARKS
   TC - TEMPERATURE IN CELSIUS
  WCI - WIND CHILL INDEX
   HX - HEAT INDEX
  VSB - VISIBILITY
$$



USA.gov is the U.S. government's official web portal to all federal, state and local government web resources and services.